Location: McFarlands Corners
(41.4117°N, 81.3382°W)
Time: 10:20:03
(UTC+00:00)

Courier 1B Rocket - Pass Details

Date: 17 February 2026
Orbit: 920 x 1201 km, 28.2° (Epoch: 10 March)

Event Time Altitude Azimuth Distance (km) Brightness Sun altitude
Rises 01:08:57 0° 227° (SW) 3,552 8.5 -24.7°
Reaches altitude 10° 01:12:12 10° 211° (SSW) 2,630 7.5 -25.3°
Enters shadow 01:16:19 20° 170° (S) 2,038 6.5 -26.0°
Maximum altitude 01:16:39 20° 166° (SSE) 2,037 - -26.1°
Drops below altitude 10° 01:21:15 10° 121° (ESE) 2,732 - -27.0°
Sets 01:24:42 0° 105° (ESE) 3,733 - -27.6°
